Theta_e
314 314 314 314 314 315 315 315 316 318 320 322 322 321 327 333 323 320 335 342 329 324 326 326 324 332 343 339 327 325 329 334 340 341 342 344 345 345 346 347 347 349 349 350 350 350 351 351 351 351 351 352 352 353 353 352 353 353 353 353 353 353 353 353 352 353 352 353 353 353 353 353 353 352 350 347 345 342 340 338 335 333 332 331 331 330 330
313 313 313 313 314 315 316 318 320 320 323 325 323 324 330 332 327 327 337 340 333 327 327 331 330 329 335 337 331 328 331 336 339 341 343 344 344 345 346 346 348 348 349 350 349 351 351 350 351 351 351 352 352 352 353 353 353 354 353 354 354 354 354 353 353 353 354 354 353 353 353 354 354 354 352 350 348 346 344 341 338 335 334 333 332 331 331
313 313 314 314 315 316 318 324 328 329 330 327 322 325 329 328 328 331 334 333 334 335 338 339 333 328 335 342 337 332 332 337 338 340 343 344 344 346 346 346 348 348 349 350 349 350 351 351 351 350 350 351 352 352 353 353 353 354 354 355 355 355 354 354 354 354 354 354 354 354 354 354 355 355 354 352 351 349 348 344 341 338 336 335 334 333 332
314 314 314 314 316 318 323 328 331 331 334 332 330 337 341 339 336 336 330 327 334 341 341 343 344 346 356 362 348 335 332 337 340 340 342 344 345 345 346 347 348 347 349 349 350 350 351 350 350 350 350 350 351 352 352 353 353 354 355 355 355 355 355 355 355 355 355 355 355 355 355 355 356 356 355 355 353 352 350 348 345 342 339 336 334 335 334
316 314 312 315 320 328 334 334 329 329 335 341 344 345 344 343 346 345 335 332 339 344 343 351 363 364 367 367 354 341 335 337 340 341 342 343 345 345 346 346 347 348 349 348 349 349 349 350 349 348 348 349 350 350 351 352 353 354 354 355 356 356 355 355 356 355 355 355 355 355 356 356 357 357 357 356 355 354 352 351 349 346 342 338 335 336 335
316 313 314 322 330 335 337 333 326 325 333 341 345 344 341 341 344 346 345 343 346 351 353 357 362 360 357 357 354 348 342 337 339 342 342 342 344 345 345 346 347 347 348 348 349 349 348 348 348 348 349 348 348 350 351 352 353 353 355 355 356 356 355 355 355 355 355 355 355 356 357 358 358 358 358 358 357 356 355 354 352 350 345 341 339 337 337
315 315 319 332 340 336 332 329 324 324 328 331 337 341 340 338 340 343 346 348 350 356 358 354 353 353 352 352 353 352 349 342 339 341 341 342 344 343 344 345 346 346 347 347 348 348 349 349 349 349 350 350 350 350 351 352 352 353 354 355 355 354 353 354 355 355 356 356 356 357 358 359 359 359 360 360 359 359 357 356 355 353 350 345 341 339 338
317 316 320 331 338 333 330 328 324 324 325 326 332 342 342 337 337 340 344 346 349 354 353 349 351 353 351 352 353 354 354 351 345 342 342 343 343 342 344 344 344 346 347 347 348 348 349 349 349 350 349 350 350 351 350 351 352 352 353 354 354 354 353 355 355 356 357 358 358 359 359 359 360 360 361 361 361 361 360 358 358 356 353 349 344 342 342
318 316 315 323 333 335 333 329 324 322 324 323 327 338 343 337 335 338 341 343 345 348 348 347 349 350 352 354 353 352 354 356 354 349 345 343 342 343 344 344 344 346 346 347 347 348 348 348 349 349 350 349 350 350 350 350 350 351 353 354 355 355 355 356 356 357 357 357 358 359 359 360 361 362 362 362 362 363 361 361 360 358 354 350 347 345 344
318 316 316 323 335 338 332 326 321 320 323 322 322 332 342 338 332 335 339 342 343 345 346 347 347 350 355 357 354 351 353 356 358 358 355 350 347 346 345 345 345 345 346 347 347 347 348 349 349 349 349 349 349 350 350 349 349 350 352 353 355 356 355 356 355 355 356 356 358 359 360 362 362 362 363 363 363 363 363 362 362 359 357 354 351 348 346
315 314 317 324 331 332 327 322 320 321 323 322 324 335 345 338 331 332 337 340 342 344 345 347 349 354 360 358 353 351 352 354 357 359 359 357 356 352 350 349 348 348 347 347 348 349 349 349 350 350 350 350 350 350 349 350 350 350 351 353 354 355 354 354 354 355 356 357 360 361 362 363 362 363 363 363 363 363 363 363 363 361 359 358 356 354 350
314 315 318 323 327 326 323 321 321 322 324 324 331 343 346 336 330 332 335 339 342 342 343 345 347 352 357 355 350 349 351 353 354 357 358 359 359 358 357 355 354 355 354 352 353 354 354 354 354 353 352 352 352 352 351 351 351 352 352 352 353 353 354 354 355 356 358 360 361 362 362 363 362 363 363 363 363 363 364 364 363 363 362 360 358 357 356
315 315 317 323 326 323 321 322 323 324 328 331 336 340 336 330 329 330 332 337 340 341 342 343 344 346 347 346 347 349 349 351 353 355 356 357 359 359 359 358 357 358 357 356 358 357 357 359 359 357 357 357 356 356 356 356 355 355 355 355 355 355 356 357 357 359 360 362 362 362 363 363 363 363 364 364 364 364 364 363 363 363 362 361 360 359 357
317 318 321 326 327 322 319 322 325 325 330 335 335 331 327 325 326 326 327 330 334 338 341 341 341 342 342 344 347 348 348 350 352 353 354 354 355 355 355 356 357 357 357 357 358 358 358 359 359 358 359 359 359 360 360 360 360 360 360 359 359 359 360 360 361 361 362 362 363 363 363 363 364 364 364 363 364 364 363 364 363 363 362 362 362 360 359
321 322 324 327 326 322 320 323 326 327 329 331 328 326 324 323 322 322 323 324 325 331 338 340 340 341 342 342 344 346 348 348 349 351 353 353 353 352 349 348 348 349 352 352 350 351 352 354 355 356 358 358 359 359 359 359 360 360 360 361 360 360 361 361 361 363 363 363 363 364 364 364 364 364 364 363 364 364 364 363 363 363 363 362 362 361 360
320 321 322 323 323 321 320 322 324 324 324 324 323 323 323 321 320 320 321 322 322 325 332 338 340 341 341 342 343 344 347 347 347 349 351 352 353 352 350 347 342 338 337 337 336 336 337 340 342 345 348 352 354 356 357 357 358 358 357 358 357 357 357 357 357 358 359 360 361 362 362 363 364 363 363 363 363 363 363 364 363 363 363 362 362 362 361
318 319 320 320 321 320 318 318 319 318 317 318 319 321 321 320 319 319 319 321 322 324 327 333 337 339 341 342 342 343 345 346 346 347 348 350 351 352 352 350 348 343 337 335 333 332 332 332 333 333 336 339 343 347 350 352 354 356 355 355 355 354 354 354 355 354 354 355 356 357 358 359 360 361 361 361 362 363 363 364 363 363 363 363 362 362 361
316 318 318 317 318 318 317 316 315 313 313 313 314 318 320 320 318 317 318 320 322 324 327 329 332 337 340 341 342 343 344 344 346 347 347 348 349 349 350 350 349 347 344 340 337 337 337 336 335 334 335 337 339 343 346 347 348 351 351 352 353 353 353 353 353 353 353 353 353 353 355 355 356 357 359 359 360 361 361 363 363 363 363 363 362 362 362
316 320 319 316 315 316 316 315 313 313 312 311 311 313 317 318 318 317 318 320 322 325 326 327 329 334 338 340 342 343 343 344 345 346 347 348 348 348 348 348 347 346 344 341 340 340 339 339 339 338 338 339 342 345 347 349 350 350 350 351 351 352 351 352 351 352 352 353 353 353 353 354 355 356 358 359 360 360 362 362 362 362 362 363 362 362 362
314 318 317 313 312 315 316 314 313 313 312 311 311 311 313 315 316 316 317 318 320 323 325 326 328 332 336 338 340 342 343 343 344 345 346 347 348 348 348 348 347 345 342 342 342 340 340 340 340 339 338 338 338 340 342 345 347 349 351 353 355 354 352 351 351 352 352 353 354 353 353 354 355 356 357 359 360 361 362 362 362 362 363 363 363 362 362
312 315 314 311 311 315 316 314 313 313 312 311 311 311 312 314 316 317 316 316 317 320 322 324 325 328 332 335 337 340 343 343 343 343 344 345 346 346 346 346 346 344 343 342 341 340 340 341 340 340 340 339 338 338 337 337 339 342 347 352 356 358 357 354 352 352 353 353 355 354 354 354 354 355 357 358 360 361 361 362 363 363 363 363 363 363 364
312 313 312 310 310 313 314 313 313 312 311 311 311 311 311 313 316 318 318 317 316 316 318 321 322 324 328 332 334 336 340 343 343 343 343 343 344 345 345 345 344 344 343 343 343 342 342 341 341 341 341 342 342 341 339 337 337 337 340 345 353 358 360 359 357 356 356 355 355 355 354 354 354 355 355 356 359 361 362 362 363 364 365 365 366 366 366
310 310 310 310 310 310 310 311 311 311 310 310 311 310 310 312 316 318 318 317 316 314 315 317 317 319 326 330 331 333 337 340 342 344 344 344 344 344 344 344 344 343 343 343 344 344 343 341 340 341 342 343 343 342 341 341 341 341 342 344 348 355 360 362 362 359 358 358 358 357 357 357 356 356 356 358 360 362 363 364 365 366 366 367 367 366 367
309 309 309 309 309 310 310 310 310 310 310 310 311 311 310 311 314 316 317 317 316 314 315 316 315 315 324 331 332 331 334 338 340 342 344 344 344 344 344 343 343 343 343 343 343 343 341 339 338 340 341 342 341 340 341 342 344 347 350 350 351 355 361 365 365 362 360 360 361 360 360 360 360 360 360 360 361 363 365 366 367 367 368 368 367 366 367
309 309 309 310 309 310 310 310 310 311 310 310 311 312 311 311 313 315 316 317 316 315 316 318 316 313 321 331 333 330 331 334 337 340 342 343 344 344 343 343 343 344 344 343 342 340 338 336 337 339 340 340 340 341 344 346 348 350 353 355 356 358 361 365 367 366 365 364 364 363 363 363 363 363 363 363 363 364 365 366 367 368 369 369 368 368 368
309 310 310 310 310 310 310 310 311 312 312 311 312 312 312 311 312 313 314 315 316 315 315 316 316 313 316 325 329 328 327 330 334 337 340 342 343 343 343 344 344 344 344 344 343 342 340 338 337 339 340 339 340 343 347 349 351 353 355 356 356 357 360 362 364 367 367 367 366 366 366 366 365 366 366 366 365 365 364 366 365 365 366 368 369 369 368
310 310 311 311 311 312 312 311 312 313 313 312 311 312 313 313 312 312 312 312 314 316 315 314 315 313 314 319 325 326 327 329 332 336 338 340 342 343 344 344 344 344 344 344 344 343 343 341 339 340 340 340 343 347 349 350 352 354 356 356 356 359 361 362 363 365 366 367 368 368 368 367 367 367 367 367 367 366 366 365 365 365 365 367 367 366 365
310 310 311 312 313 314 314 313 313 313 313 312 312 312 314 314 314 314 313 312 313 315 315 314 313 313 315 319 326 330 330 329 330 334 337 339 340 342 343 343 342 343 344 344 344 344 343 342 341 341 341 341 345 348 349 349 351 353 355 356 358 358 360 363 364 363 364 365 368 369 369 369 368 368 368 368 367 368 367 366 365 365 365 365 364 361 360
309 310 311 312 315 317 317 315 314 313 313 313 313 313 314 314 314 314 314 313 313 314 315 315 314 313 313 317 324 331 332 329 330 334 336 337 338 340 341 341 341 341 342 343 343 343 343 343 343 342 342 343 346 346 346 348 350 350 352 354 356 357 358 360 362 363 363 364 366 367 368 368 368 368 368 368 367 366 366 365 364 364 361 359 356 354 351
309 309 310 312 316 318 318 316 315 314 313 313 314 314 314 314 314 314 313 312 312 314 316 316 315 314 312 312 318 327 332 331 332 334 335 336 337 338 339 340 340 340 340 342 342 342 342 342 342 343 342 344 345 345 345 347 349 349 350 352 353 355 355 357 359 362 364 365 365 365 365 366 366 366 365 365 364 363 362 360 359 357 353 347 344 343 342
309 309 310 311 314 316 317 317 316 315 314 314 314 314 314 314 314 314 313 312 312 314 316 317 316 316 314 312 314 322 329 331 333 334 334 335 336 336 337 339 340 339 340 341 342 342 342 342 342 343 343 344 345 345 345 347 348 349 350 351 352 352 353 354 356 360 362 361 361 361 360 360 360 360 359 358 357 356 353 351 348 345 341 337 333 332 332
309 309 309 310 311 313 315 316 317 316 316 315 314 314 314 314 313 314 314 313 313 315 316 316 316 316 317 317 320 326 330 332 333 333 332 333 334 334 336 337 338 339 340 341 341 341 341 341 342 343 343 343 344 345 346 346 347 348 349 350 350 350 351 352 354 357 358 356 355 354 353 352 352 353 352 350 348 346 343 340 337 334 331 329 327 326 327
308 309 308 309 309 310 312 313 315 317 317 317 316 316 315 314 313 314 314 314 314 314 315 315 315 316 318 323 328 332 333 332 332 332 332 332 333 334 335 337 338 338 339 341 341 341 341 342 343 343 343 343 343 344 345 345 345 346 347 347 348 349 349 349 351 354 355 353 352 350 350 349 349 347 345 342 339 337 334 331 329 328 326 326 325 325 325
308 308 308 308 308 309 310 311 313 315 318 319 320 319 318 316 315 315 315 315 314 314 314 315 316 316 318 324 331 334 334 332 331 331 331 332 333 334 335 336 337 338 339 340 341 341 342 342 342 343 343 343 343 343 344 344 344 345 345 346 346 346 346 347 348 350 351 350 349 347 346 345 343 340 336 333 331 330 328 327 326 326 325 325 325 325 325
307 307 308 307 307 308 309 310 311 313 316 318 320 320 320 319 317 317 317 316 315 315 315 316 317 316 317 323 330 334 332 331 331 330 331 331 332 333 334 335 336 337 338 339 340 340 341 341 341 342 343 343 343 343 343 343 343 343 344 344 344 345 344 344 345 346 347 346 345 342 340 339 336 333 332 330 328 327 326 326 326 326 327 327 327 327 327
307 307 307 307 307 307 308 308 310 311 314 316 318 320 320 319 318 318 318 317 316 316 316 317 317 317 317 321 327 331 331 331 330 330 330 331 331 331 332 333 335 335 337 337 338 338 338 339 340 341 342 342 342 342 341 342 342 342 343 343 343 343 343 343 342 343 343 343 341 339 337 335 333 333 333 332 330 329 329 329 329 330 330 330 330 330 330
306 306 307 307 307 307 307 307 308 310 312 315 318 320 320 320 319 318 318 317 316 316 317 317 317 317 319 323 327 329 330 331 330 329 329 328 328 329 330 332 332 333 334 335 336 336 337 338 338 339 341 341 341 341 341 341 341 342 342 342 342 341 341 340 340 340 340 340 339 338 337 336 336 336 336 335 333 333 332 332 333 332 332 332 332 332 332
306 306 306 306 306 306 306 306 307 308 310 313 316 319 320 320 320 319 318 318 318 317 318 318 318 318 322 326 327 327 328 328 327 327 327 326 326 328 329 329 330 331 332 332 333 333 334 336 336 337 339 339 339 339 340 340 340 341 341 340 341 340 339 338 338 338 338 338 338 338 338 338 337 338 337 336 335 334 334 334 334 333 333 333 333 333 333
306 306 306 306 306 306 306 306 306 307 307 310 313 315 317 319 320 320 320 319 319 319 319 320 320 321 324 326 326 325 324 324 324 325 325 324 325 328 328 327 328 328 328 328 329 330 331 333 334 336 337 337 336 337 337 337 337 338 338 338 338 338 337 337 336 336 335 335 337 337 337 337 337 337 337 336 336 335 334 334 334 334 334 334 333 333 333
306 306 306 306 306 306 306 305 305 305 306 307 308 310 312 314 317 320 320 320 321 321 322 322 322 322 322 323 323 321 320 321 321 323 324 324 325 326 326 325 324 325 325 325 327 328 329 330 332 333 333 333 334 334 334 334 334 333 333 333 334 334 334 334 334 333 333 333 334 335 335 335 336 336 335 335 335 334 334 334 333 333 334 334 333 333 333
306 306 306 306 305 305 305 305 305 305 305 305 306 307 308 310 312 314 315 316 317 318 319 320 320 319 318 319 320 319 318 318 320 321 321 321 322 324 323 322 321 321 323 324 326 327 327 328 329 330 330 331 331 331 331 331 331 330 330 330 331 331 331 332 331 331 331 332 332 332 333 333 334 334 333 333 333 332 332 331 331 331 331 331 331 331 331
306 306 306 305 305 305 305 305 305 305 305 305 305 305 305 306 308 309 310 311 312 313 313 314 314 314 313 314 315 316 316 316 317 318 318 318 318 319 320 319 318 320 322 324 325 326 327 327 328 328 328 328 328 328 328 328 328 328 328 328 327 327 327 327 326 326 327 327 327 327 328 328 329 329 328 328 327 326 326 326 325 325 325 325 325 325 325
306 306 306 305 305 305 304 305 305 305 305 305 305 304 304 304 305 306 307 308 309 309 310 310 310 310 310 310 311 312 312 313 314 315 316 316 315 316 316 316 316 318 320 322 323 324 324 324 324 325 325 325 326 325 325 325 325 325 324 324 324 323 323 324 323 324 324 323 323 322 322 322 322 322 322 322 322 321 321 321 321 321 321 321 321 321 321
307 306 306 306 305 305 305 304 304 304 304 304 304 305 304 304 304 304 304 305 306 307 307 308 308 308 309 309 309 310 310 310 310 311 312 313 313 313 313 314 314 316 318 320 321 321 321 321 322 322 322 322 322 321 321 321 320 320 320 320 320 320 320 320 320 320 320 320 319 319 319 319 319 318 318 318 318 318 318 318 318 318 319 319 319 319 319
307 307 307 306 305 305 305 304 304 304 304 304 304 304 304 304 304 304 304 304 304 304 304 305 305 306 306 307 308 308 308 309 309 309 309 310 310 310 311 312 313 314 316 317 318 318 318 318 319 319 319 318 317 316 316 316 316 316 316 316 316 316 316 316 317 317 317 316 316 316 316 316 315 315 315 315 314 314 314 314 314 314 314 314 314 315 315
307 307 307 307 306 305 305 304 304 304 304 303 303 303 303 303 304 304 304 304 304 303 303 303 303 303 304 304 305 306 306 307 307 307 307 308 308 308 309 310 311 312 313 315 315 315 315 315 316 316 316 316 315 315 315 314 314 314 314 313 313 313 313 313 313 313 313 312 312 312 312 312 311 311 311 310 310 310 310 310 309 309 309 309 309 309 309
306 306 306 306 306 306 305 305 304 304 304 303 303 303 303 303 303 303 303 303 304 304 304 303 303 303 303 303 303 303 304 304 304 305 305 306 306 306 307 308 308 309 310 311 312 312 313 314 314 315 315 315 315 314 314 313 313 312 312 311 311 311 310 310 310 310 309 309 309 309 309 308 308 308 308 307 307 306 306 306 305 305 304 304 304 304 304
305 304 304 305 305 306 306 306 305 304 304 303 303 303 302 302 302 302 302 302 302 303 303 303 303 303 303 303 303 302 302 302 303 303 303 303 304 304 304 305 306 306 307 308 309 309 310 311 312 312 313 313 313 313 312 311 311 310 309 309 309 309 309 309 308 308 308 308 307 307 307 306 306 306 306 305 305 304 304 303 303 302 301 301 301 301 300
303 303 303 303 304 305 306 306 306 305 304 304 303 303 303 302 302 302 302 302 302 302 302 302 302 302 301 302 302 302 302 302 302 302 302 302 302 302 303 303 303 304 305 306 306 307 308 308 309 310 310 310 310 311 310 310 309 309 308 308 307 307 307 307 307 307 306 306 306 305 305 304 304 304 304 303 303 303 302 302 301 300 300 299 298 297 297
303 303 303 302 303 304 305 306 306 306 305 304 304 303 302 302 302 302 301 301 301 301 301 301 301 301 301 301 301 301 301 301 301 301 301 301 301 301 301 302 302 302 302 303 304 304 305 306 307 307 308 308 308 308 308 308 308 307 307 307 307 306 306 306 306 306 305 305 304 304 303 303 303 303 303 302 302 302 301 301 300 299 299 298 297 296 294
303 302 302 302 302 303 304 305 305 306 306 305 304 303 302 302 301 301 301 301 301 301 301 301 301 301 301 301 301 300 300 300 300 300 300 301 301 301 301 301 301 301 301 302 302 303 303 304 304 305 305 306 306 306 306 306 306 306 305 306 305 305 305 305 305 305 304 304 303 303 303 302 302 302 302 301 301 301 300 300 299 298 298 297 296 295 294
302 302 302 301 301 302 303 303 304 305 305 305 305 304 303 302 301 301 301 301 301 301 301 301 301 301 301 301 301 301 300 299 299 299 299 300 300 300 300 300 301 301 301 301 301 302 302 303 303 304 304 304 304 305 305 305 305 304 304 304 304 303 303 304 304 303 303 303 302 302 301 301 301 301 301 300 300 300 299 299 299 298 298 297 296 295 295
Wind_Speed
12 14 17 18 15 13 14 14 16 18 17 14 13 13 10 9 8 9 7 8 12 16 16 17 16 7 5 8 11 19 27 29 31 34 34 35 38 39 39 41 44 46 48 49 51 52 51 50 49 48 48 49 49 50 50 50 51 51 50 50 50 49 49 49 47 46 44 43 41 40 38 38 38 39 41 41 41 41 40 39 37 36 36 36 36 37 37
14 16 16 16 13 11 12 13 14 17 18 16 16 12 10 11 10 9 8 11 14 14 13 13 10 6 8 10 10 16 21 24 28 31 33 35 37 39 41 43 45 47 49 50 52 52 50 50 49 49 49 49 50 50 50 50 50 50 49 49 49 49 49 48 47 45 44 43 42 40 39 38 37 38 40 40 41 41 41 40 38 36 36 37 37 38 38
11 12 10 9 9 9 11 10 8 11 12 12 15 11 7 9 7 5 7 10 11 10 7 5 5 5 4 5 5 12 19 26 29 30 32 34 36 39 43 45 47 48 48 49 50 50 50 50 50 51 51 51 50 50 50 50 49 48 47 47 48 48 48 47 46 45 44 43 42 41 40 38 37 37 38 40 40 41 41 40 38 37 37 37 38 39 39
7 7 7 12 13 9 7 6 12 14 10 2 6 3 1 3 5 1 3 6 7 8 3 1 4 8 6 4 3 7 15 23 29 30 31 33 36 40 43 46 46 46 46 46 47 48 50 50 51 52 52 51 50 50 50 49 47 46 46 46 46 46 46 45 45 45 44 43 42 41 40 39 37 36 37 39 40 41 41 40 39 38 38 38 38 39 40
5 6 11 15 11 6 4 2 9 13 8 5 8 7 9 4 2 4 4 6 7 6 4 3 5 9 7 6 7 4 10 18 27 33 34 36 39 41 44 45 45 45 46 48 50 50 50 51 51 51 51 51 51 50 49 47 45 44 44 44 44 44 44 44 44 43 43 42 41 40 40 38 37 36 37 38 40 41 41 40 39 39 38 38 39 39 40
5 10 14 10 2 0 2 2 7 12 10 10 13 9 10 9 4 1 2 5 5 4 5 5 4 8 10 12 17 13 2 14 23 29 32 36 39 41 42 43 44 46 47 48 49 49 49 49 49 48 49 49 48 47 46 45 44 43 42 42 42 43 43 43 43 42 41 41 40 39 38 37 37 37 37 37 38 39 40 40 40 39 38 38 39 40 41
4 9 9 1 5 2 2 3 8 12 9 8 9 7 11 15 12 10 7 6 6 6 6 6 5 10 20 28 31 27 12 6 16 21 23 28 32 34 36 38 40 42 43 44 44 45 45 46 46 46 46 46 44 43 43 43 42 42 41 41 41 41 41 41 41 40 40 40 39 37 36 36 36 36 35 35 36 37 38 39 39 38 37 37 38 39 40
2 5 4 3 3 4 3 1 7 12 9 8 8 7 14 18 15 12 10 9 8 7 5 5 4 7 23 35 34 32 24 12 10 15 17 21 26 29 30 33 35 36 38 40 40 40 41 41 42 42 42 42 42 41 40 40 40 40 40 40 40 40 40 40 39 39 38 38 37 36 35 36 36 35 34 34 34 34 35 36 36 36 36 36 37 38 39
1 3 4 3 2 5 2 1 7 9 7 9 8 4 9 15 15 13 11 10 11 10 9 9 9 7 14 23 23 28 29 21 16 16 17 18 22 24 25 27 28 30 32 33 33 34 35 36 37 38 38 38 38 38 38 38 38 38 39 40 40 39 39 38 37 36 36 36 35 35 35 36 36 34 32 32 32 32 33 33 33 33 33 33 35 36 38
0 2 3 3 2 1 1 6 11 10 9 10 8 3 4 12 17 17 12 11 12 10 10 14 15 9 8 10 11 21 26 23 23 25 24 23 24 23 24 25 25 25 26 26 26 27 28 30 32 33 35 36 36 37 37 36 36 37 38 39 40 40 39 37 36 35 35 34 34 34 34 35 34 32 31 31 31 31 32 31 29 28 28 29 31 33 35
2 1 2 3 1 2 5 13 16 17 16 11 5 1 3 9 18 21 15 12 13 11 12 16 11 2 7 5 7 16 21 22 25 28 30 32 31 29 28 28 26 25 25 24 23 24 24 25 27 28 29 30 31 33 33 34 35 36 37 37 38 39 38 37 35 34 34 35 34 33 33 33 32 31 30 30 30 31 31 30 28 26 26 28 29 30 32
4 4 3 2 1 3 10 15 18 24 22 10 1 2 3 9 19 24 17 13 15 16 17 16 9 5 7 5 6 13 18 22 26 29 31 34 36 37 35 33 32 31 30 29 28 26 24 22 21 21 22 22 24 26 27 28 30 32 33 34 34 35 37 38 37 35 35 35 34 33 32 31 30 30 30 30 31 32 32 31 29 28 28 28 29 29 31
5 5 3 1 1 2 10 17 24 28 19 4 4 3 3 11 20 22 19 18 19 20 19 14 10 11 14 14 15 18 21 24 28 29 31 32 34 37 37 36 37 36 34 32 30 28 25 22 19 16 16 18 21 23 25 26 29 31 32 33 34 35 37 39 40 39 37 36 35 33 32 31 31 31 31 31 32 32 31 31 31 30 29 29 29 30 30
3 4 2 1 2 2 12 22 26 23 9 3 4 5 6 13 18 19 22 24 23 22 20 17 15 18 23 24 23 23 24 25 27 28 29 30 31 32 32 32 33 33 32 30 28 26 23 21 20 17 16 17 19 19 21 23 26 28 30 32 34 36 38 39 40 40 40 38 37 35 34 34 34 35 34 33 33 33 33 33 32 32 31 31 31 31 31
2 1 2 2 1 5 18 21 16 14 9 5 7 8 8 13 18 21 24 26 26 24 21 21 23 24 27 27 25 24 25 25 26 26 27 28 28 28 28 27 27 27 27 25 23 21 19 17 17 16 16 17 17 17 17 18 18 19 20 22 25 28 31 33 35 37 38 38 38 37 36 36 36 36 36 35 35 35 35 35 34 34 33 33 33 33 33
3 2 3 2 3 5 17 16 8 11 13 13 13 11 11 16 22 24 26 28 29 28 25 24 26 27 27 27 25 24 24 23 23 24 25 26 26 25 25 24 22 23 24 22 20 19 16 14 14 13 14 15 15 15 15 15 15 15 15 16 16 17 19 21 24 26 28 30 32 34 34 35 36 37 36 36 36 36 36 36 36 36 35 35 35 35 34
3 1 2 3 2 5 13 15 14 16 20 21 19 14 14 20 26 27 29 30 30 31 29 27 28 29 27 26 25 25 24 22 22 21 22 23 24 23 22 21 20 20 20 20 18 16 14 12 11 10 10 11 12 13 13 14 14 14 15 15 15 15 15 16 17 18 19 20 23 25 28 30 32 34 35 36 36 36 36 37 37 37 36 36 36 35 34
6 2 2 6 7 7 10 15 17 17 18 22 24 20 18 22 26 28 30 30 29 30 30 29 29 29 27 25 25 25 24 23 21 19 19 20 21 21 21 19 18 17 18 17 16 14 12 10 7 6 6 7 8 9 10 12 13 14 15 15 15 15 15 16 16 16 17 18 19 20 23 25 27 28 29 31 32 33 34 36 36 37 36 36 36 35 35
7 1 3 6 7 4 3 11 16 16 17 21 25 25 24 23 23 24 26 28 28 27 28 29 29 28 27 26 25 24 24 23 21 20 18 18 19 19 19 18 16 16 16 16 15 13 12 9 6 4 2 3 4 5 7 8 10 11 12 13 14 14 14 15 16 17 17 18 18 20 22 24 24 24 25 27 29 31 33 34 35 36 36 36 35 35 34
7 5 4 14 16 3 8 6 12 14 17 22 24 25 26 24 21 21 22 24 26 26 26 28 28 27 27 27 25 23 23 22 20 19 18 17 17 17 17 17 16 16 16 16 15 13 12 10 7 4 1 1 4 6 8 10 10 10 10 11 11 12 13 14 15 16 16 17 19 21 23 24 23 23 24 25 27 28 29 31 32 33 33 33 32 31 31
6 5 6 19 19 2 13 8 8 13 18 23 25 25 24 22 20 19 18 19 22 24 24 25 26 27 25 25 24 23 21 20 19 17 16 15 15 15 16 16 16 16 17 16 15 14 12 10 7 4 2 3 4 6 9 11 13 13 12 11 10 10 10 11 12 14 16 17 19 21 23 24 24 24 25 25 26 26 26 27 28 29 29 29 28 26 26
4 3 8 13 11 4 6 8 12 17 21 23 24 25 23 20 18 17 18 18 18 19 20 21 23 24 24 22 22 21 19 17 17 15 14 14 15 15 14 14 14 15 15 15 14 13 12 11 8 6 5 4 5 6 8 10 12 13 14 12 10 9 9 8 9 12 15 16 18 19 21 23 23 24 26 26 26 26 25 25 26 25 25 24 22 20 20
8 11 16 17 13 13 20 24 23 21 23 23 23 24 22 17 14 14 16 17 17 16 18 18 18 20 20 19 18 18 17 14 13 13 12 11 13 14 13 12 12 12 12 12 12 11 11 11 10 9 9 8 7 7 7 8 9 10 11 11 9 8 8 7 7 9 11 14 15 17 19 21 22 23 25 25 26 25 25 25 24 23 22 20 17 16 17
14 17 22 23 21 23 28 32 30 27 24 21 21 23 22 17 12 10 11 13 14 16 17 16 16 16 16 14 14 15 15 12 11 10 9 8 9 10 9 10 10 10 10 10 11 11 11 11 12 12 11 10 9 8 7 6 6 6 6 7 6 7 8 7 6 7 9 11 13 15 17 19 20 22 23 24 24 25 24 23 22 20 20 18 17 18 18
20 22 25 27 30 33 34 34 35 33 26 22 23 24 20 14 9 7 8 10 11 13 14 14 14 15 14 12 11 12 13 11 10 9 7 5 6 6 7 9 10 10 10 10 10 11 12 12 13 12 12 12 10 7 6 5 4 3 4 4 5 6 7 7 7 7 9 10 11 13 15 17 18 19 20 20 21 22 22 22 21 20 20 20 19 19 19
25 28 29 28 30 33 31 29 32 32 26 21 21 18 13 9 8 10 11 10 10 11 12 11 11 12 12 11 10 10 11 11 10 9 6 5 5 6 8 9 11 11 11 10 10 11 12 13 13 14 13 13 9 5 4 5 5 4 4 4 4 5 5 8 9 9 9 9 10 11 13 15 16 17 17 18 18 18 19 20 20 20 19 18 18 16 15
28 29 26 22 21 25 26 27 28 25 18 13 12 10 11 12 12 14 16 14 11 12 14 13 11 10 11 10 8 9 11 11 10 9 7 6 6 7 8 9 9 9 10 9 9 10 10 11 13 14 14 12 8 5 4 5 5 4 4 4 4 4 4 6 9 10 10 10 11 12 13 15 16 16 16 17 17 17 17 18 19 19 17 16 14 12 12
33 32 26 19 19 24 27 28 26 21 14 11 11 11 13 15 16 18 18 16 14 14 15 14 11 9 9 9 7 8 11 12 11 10 8 7 6 6 7 8 7 7 7 8 7 8 8 9 11 12 12 10 7 4 4 4 4 2 2 3 4 5 5 6 8 10 11 11 13 14 15 15 16 17 17 18 18 18 18 18 17 17 17 16 15 13 12
37 34 31 28 23 21 22 22 22 22 20 18 17 17 18 20 21 21 20 19 17 16 14 12 11 10 10 9 8 8 11 12 12 10 8 8 7 6 6 7 7 7 7 7 6 7 7 7 8 9 10 8 5 3 3 2 2 3 3 3 4 5 6 7 8 10 12 13 14 16 16 17 18 18 19 19 19 19 18 18 17 17 18 17 17 16 14
36 32 32 32 25 14 11 13 15 18 19 19 19 19 21 23 25 26 25 22 18 14 12 11 12 11 10 8 7 8 10 12 11 9 8 8 7 6 5 5 7 8 8 6 6 6 7 7 6 6 7 6 4 3 2 1 2 4 5 5 5 5 6 7 9 10 12 15 18 18 19 19 20 20 20 20 19 19 18 18 18 18 17 17 15 14 14
35 34 35 35 30 20 12 10 12 14 15 14 15 17 18 20 22 24 23 19 15 13 12 12 12 11 9 7 6 7 10 12 10 9 9 8 7 6 5 4 5 7 7 6 6 6 6 6 5 4 5 4 3 2 1 2 3 4 4 4 5 6 7 8 7 8 11 15 19 20 20 21 21 21 21 20 19 19 19 19 19 18 17 17 15 14 15
34 34 37 38 35 29 21 13 12 14 15 14 14 16 17 18 19 20 18 15 13 14 13 12 11 9 7 5 4 5 8 9 9 9 9 9 8 8 6 4 4 5 5 5 6 6 7 7 6 5 5 5 4 3 2 3 5 6 5 5 5 5 6 7 7 7 9 12 15 16 16 17 17 18 19 19 19 19 20 20 21 20 20 20 19 18 17
32 31 33 35 34 32 29 23 16 13 13 13 14 14 14 14 16 17 17 15 14 15 15 13 9 7 6 5 6 8 9 8 7 7 8 7 7 7 5 3 4 4 4 5 7 8 9 9 8 7 6 6 6 5 4 4 6 7 8 7 7 6 6 6 7 8 10 12 13 14 16 17 18 19 19 20 20 21 22 22 22 22 21 21 20 19 18
30 28 29 32 33 31 28 26 21 16 12 11 12 12 12 12 13 13 13 13 14 16 16 12 9 7 7 7 8 10 11 9 7 6 6 5 6 6 5 6 6 6 6 8 10 11 12 12 10 9 8 8 8 7 5 5 6 8 9 9 8 7 7 7 8 10 13 15 18 19 20 21 21 22 23 24 24 25 25 24 23 22 20 19 18 18 17
29 30 32 34 36 34 30 27 24 19 14 10 11 12 11 9 9 10 11 12 14 16 15 12 11 10 9 10 11 12 12 10 8 7 6 7 8 9 10 10 10 9 10 11 12 13 13 12 11 11 11 12 11 10 9 8 9 9 9 9 9 9 9 10 11 13 15 18 21 22 23 24 25 25 25 25 25 25 25 25 23 22 20 20 19 19 18
31 33 34 35 37 37 35 31 26 21 16 10 8 9 9 7 6 7 8 9 12 14 15 14 13 12 11 11 12 13 14 12 10 9 9 11 12 12 13 13 12 11 11 13 13 12 12 12 13 14 15 15 14 13 12 13 13 13 12 12 12 12 12 14 15 16 18 20 22 24 26 27 28 28 27 25 25 24 23 22 22 20 19 19 19 19 17
34 35 36 36 36 38 38 36 31 27 22 15 7 3 4 4 3 4 6 7 10 12 14 15 13 11 11 12 13 13 14 13 12 12 14 15 16 15 14 14 13 12 12 13 12 11 11 13 14 16 17 17 17 16 16 16 17 17 16 16 17 17 17 18 19 20 20 21 23 24 26 26 26 25 24 24 23 22 21 20 19 18 17 16 16 15 14
35 36 36 36 37 38 40 40 38 34 29 22 14 8 4 1 2 4 6 8 10 12 13 13 11 10 12 14 15 15 16 15 14 15 16 16 16 16 15 13 12 11 10 10 10 10 11 14 15 16 17 18 19 19 19 19 19 19 19 20 21 22 23 24 24 25 25 24 24 23 24 24 24 22 21 21 21 20 20 19 17 16 15 14 13 12 11
34 34 35 36 38 39 40 42 42 41 38 32 25 18 13 7 2 5 7 9 10 11 11 11 10 11 14 16 17 18 19 19 18 18 17 17 17 17 16 14 13 11 10 9 9 9 10 12 15 17 18 18 20 20 19 19 19 19 20 21 22 24 25 25 26 27 28 28 26 25 24 23 22 20 20 19 19 18 18 17 16 15 14 13 12 12 11
31 32 32 34 35 37 38 40 42 43 42 39 34 29 24 20 12 8 10 11 12 13 13 13 15 17 18 18 19 20 21 21 22 21 19 19 18 18 17 17 16 14 13 12 11 10 10 9 12 15 16 17 17 18 18 17 16 16 17 18 20 20 20 20 19 20 21 23 24 24 23 22 21 20 19 18 17 16 16 15 15 14 13 12 11 10 10
28 28 28 29 31 33 34 35 38 40 41 41 39 35 32 30 26 22 20 20 20 20 20 18 20 22 23 22 22 22 22 22 23 22 21 21 21 21 21 20 18 16 16 14 13 14 13 12 12 14 16 16 16 16 16 15 14 14 14 15 15 16 15 14 14 14 14 15 17 18 19 19 18 18 17 16 15 14 13 12 11 10 9 8 8 7 7
25 25 26 26 28 29 31 31 33 35 37 38 39 38 36 34 33 31 29 29 28 28 27 24 23 24 25 24 25 25 24 23 22 23 22 22 22 23 23 22 19 18 17 17 16 16 16 16 16 16 16 15 15 14 12 12 11 11 10 10 11 12 13 12 12 12 11 11 12 14 15 15 15 15 15 14 13 12 11 10 9 8 7 6 5 4 3
21 22 23 24 25 26 28 29 30 31 32 32 33 35 37 37 37 35 34 33 32 31 30 29 27 27 27 27 27 27 26 25 24 23 23 22 22 23 23 22 20 18 17 17 17 17 17 17 17 16 15 14 13 12 12 11 11 11 11 12 13 14 15 16 16 17 16 15 16 17 17 16 16 16 16 15 15 14 13 12 11 10 10 9 8 7 6
18 19 20 21 22 23 24 26 28 29 30 29 29 29 31 33 35 37 37 37 36 34 33 32 30 29 28 28 29 28 27 26 26 26 26 26 25 24 23 22 22 20 19 19 20 20 20 19 18 16 15 14 14 15 16 16 16 16 17 18 18 19 19 19 20 20 20 20 20 19 19 18 18 17 16 16 16 15 15 14 14 13 12 11 10 9 8
18 17 16 16 18 20 21 22 23 25 26 27 28 28 28 28 28 29 30 33 35 35 34 33 32 31 30 30 30 28 27 27 27 27 28 29 28 24 22 22 22 22 21 21 21 21 21 19 18 17 17 18 18 20 20 21 21 20 20 19 20 20 20 20 20 20 20 20 20 19 19 19 19 18 17 17 17 16 16 15 14 13 12 11 10 10 9
17 17 15 13 14 15 18 19 19 20 22 24 26 28 28 28 28 26 24 25 27 28 28 29 29 29 29 29 29 28 28 28 28 28 28 28 27 23 21 22 22 21 21 22 22 22 22 20 19 19 19 19 19 19 20 21 21 21 20 20 20 20 20 20 20 20 19 19 19 19 18 18 18 18 18 17 17 16 16 15 14 13 12 11 11 10 10
16 17 17 15 13 12 13 14 16 19 21 22 22 23 24 26 27 27 26 24 23 23 23 22 22 22 23 24 26 26 26 25 26 26 26 26 25 23 22 22 22 21 21 22 22 21 19 18 18 19 19 18 18 19 20 20 20 21 21 21 21 21 20 20 20 20 20 19 19 19 18 18 18 18 17 16 16 16 15 14 14 14 13 12 11 10 9
14 15 16 17 16 14 12 10 11 14 17 18 18 19 20 22 23 24 24 24 24 24 23 22 21 20 18 18 19 21 22 24 24 24 22 21 22 22 22 22 22 22 22 23 22 20 18 17 17 18 18 18 18 19 20 20 20 20 21 21 21 20 20 20 19 19 19 18 17 17 17 17 17 16 15 15 14 14 13 13 14 15 14 13 12 11 10
11 13 14 15 15 15 13 11 9 8 10 13 16 16 17 19 21 22 22 22 22 23 24 23 23 23 22 20 18 18 19 22 23 22 20 19 20 20 20 20 20 21 22 23 23 21 19 18 18 18 18 18 19 19 19 18 18 18 18 19 18 18 18 18 18 17 17 16 15 15 16 16 16 15 14 14 13 13 13 14 15 15 14 13 12 12 11
7 9 11 13 13 13 12 11 8 5 5 8 12 14 15 16 18 19 19 19 20 21 21 21 21 22 22 22 22 20 20 20 21 20 19 19 20 20 19 19 19 19 19 20 20 19 18 17 18 18 19 19 19 19 18 17 17 17 17 17 17 16 16 16 16 15 14 14 14 14 15 15 14 13 12 12 12 12 13 14 15 15 14 13 12 12 12
6 7 9 11 12 11 9 8 7 5 3 3 6 10 14 16 17 17 17 17 18 17 17 17 17 17 17 18 19 20 21 21 20 20 19 19 19 18 18 18 18 18 18 18 18 17 16 16 15 16 16 17 18 18 17 17 17 17 17 16 16 16 15 14 13 13 13 12 12 12 13 13 12 11 11 10 10 11 12 14 15 16 16 15 14 13 12
6 7 8 9 9 9 9 8 6 5 4 4 3 6 10 14 15 15 14 14 15 16 15 14 14 13 13 13 14 16 18 19 19 19 18 17 16 16 17 17 18 18 18 18 18 17 17 17 16 15 15 15 16 17 17 16 16 16 16 16 15 15 14 13 12 12 11 11 11 11 11 11 10 10 9 9 10 10 12 13 14 15 16 16 15 14 13
Wind_Direction
270 270 272 273 272 264 257 258 263 268 276 272 246 220 184 158 180 224 226 188 214 242 249 253 260 262 255 248 225 213 205 193 189 190 189 192 193 193 193 192 194 196 197 198 200 203 204 203 204 205 207 209 210 211 213 214 215 216 217 218 220 221 222 225 227 229 231 232 234 235 237 239 241 242 241 240 240 240 240 240 241 241 241 241 242 243 244
284 275 267 260 257 262 267 260 257 264 264 255 249 232 180 177 203 214 201 197 219 239 243 255 276 277 251 248 232 221 205 186 183 185 186 189 190 189 190 192 195 197 198 199 200 202 202 202 203 205 207 209 210 211 213 214 215 216 216 217 219 219 222 225 228 230 231 232 233 234 236 238 241 243 242 241 240 240 241 241 242 242 242 243 244 244 245
292 280 273 276 277 268 267 279 303 300 279 243 233 232 194 189 211 232 217 213 235 253 242 260 319 344 289 265 236 219 201 184 181 183 185 188 188 188 190 193 196 198 199 199 200 201 201 202 204 206 209 210 211 211 213 213 214 215 215 217 218 220 224 227 229 229 230 232 233 234 235 237 241 243 243 242 241 241 242 242 243 243 244 245 245 245 247
291 288 316 322 314 292 268 317 351 334 318 225 191 211 50 184 192 203 218 216 246 267 264 307 19 37 30 360 333 246 211 187 181 182 184 186 187 189 191 193 195 196 197 198 200 201 202 203 205 208 210 211 211 212 212 213 214 214 215 217 219 222 226 228 228 229 230 232 233 234 236 237 240 243 244 244 243 242 242 242 243 244 244 245 246 247 248
279 295 321 317 316 320 285 326 2 341 334 65 86 51 20 7 164 155 190 224 253 278 311 356 56 60 41 13 16 326 230 199 185 184 185 186 188 191 193 193 194 195 197 199 202 203 204 205 208 211 213 213 214 214 213 212 213 213 215 217 219 223 227 227 229 230 232 233 235 236 238 239 240 243 244 245 244 244 243 243 244 245 245 246 247 247 249
286 301 312 308 270 116 241 161 32 355 353 50 65 51 20 10 15 58 237 261 295 338 355 357 61 88 77 52 41 36 245 208 195 190 189 189 191 193 193 194 195 196 198 200 202 204 206 209 211 212 213 215 216 215 213 212 213 213 215 217 219 224 228 229 231 233 234 235 237 239 240 241 242 243 244 246 246 246 245 245 244 245 246 246 247 248 249
282 301 314 290 161 201 242 117 37 1 353 32 50 49 31 21 13 9 355 325 348 23 29 18 40 85 80 64 48 40 47 180 196 194 191 190 191 192 192 193 194 195 197 198 201 204 206 208 210 210 212 213 214 214 214 214 214 215 216 218 221 226 230 231 232 233 234 236 238 240 241 242 242 243 245 246 247 246 246 246 246 247 247 248 249 249 251
273 310 314 184 193 307 320 84 14 4 1 359 4 27 26 17 9 6 356 342 354 2 1 18 19 59 67 62 47 38 46 73 150 174 181 185 187 188 189 191 192 193 195 197 200 203 205 206 208 209 210 212 213 215 216 216 216 217 218 219 222 227 230 231 232 233 234 236 238 240 241 241 241 242 244 246 246 246 246 246 247 248 248 249 250 251 252
221 312 296 263 301 338 350 4 351 352 343 332 333 2 20 10 4 2 355 352 359 349 336 337 306 312 49 57 38 30 42 60 92 126 147 163 171 175 179 182 185 187 191 195 199 201 203 205 208 210 211 212 214 215 217 218 219 219 220 220 223 227 230 232 234 235 236 237 239 240 240 240 240 241 243 245 246 245 245 245 246 247 248 249 250 252 253
336 326 300 308 326 230 286 324 323 315 302 299 291 260 20 8 357 353 356 7 4 353 348 338 306 297 43 55 15 20 37 55 77 98 116 132 145 155 160 166 170 175 182 187 191 196 200 203 208 212 213 215 216 216 218 220 221 222 222 223 224 227 231 235 237 238 239 239 240 240 240 241 242 243 244 245 245 245 245 245 247 249 250 252 253 254 254
297 290 276 303 254 212 319 324 315 310 308 299 271 211 43 10 348 342 353 18 14 4 6 356 332 347 81 67 357 18 39 57 72 87 101 113 125 134 143 152 156 159 165 169 173 180 187 194 202 209 212 215 218 219 222 224 225 227 229 228 229 230 233 237 240 240 241 241 240 241 242 243 245 246 247 247 246 246 246 247 249 251 252 253 253 254 255
252 243 253 289 213 273 322 321 311 308 307 301 184 112 42 355 337 335 349 22 25 19 16 10 8 62 84 78 34 38 54 68 75 83 93 102 113 120 127 135 139 142 148 153 155 160 166 173 186 198 203 208 215 220 224 226 229 232 234 234 236 236 237 238 238 238 240 241 242 243 244 246 248 249 249 249 247 247 248 249 251 251 251 253 254 255 256
240 230 232 299 227 291 325 319 315 314 309 306 86 75 4 335 329 338 3 22 27 28 27 22 28 52 61 67 64 60 66 74 77 83 90 96 106 113 118 125 130 134 138 140 142 144 146 150 158 169 183 194 203 212 218 221 224 228 231 233 236 237 237 237 238 238 240 241 244 246 247 249 250 249 250 249 249 249 251 251 252 252 252 253 254 255 256
239 215 189 290 222 336 334 323 327 340 349 104 60 24 352 337 336 353 15 22 25 31 34 32 36 49 57 62 63 61 64 71 76 83 89 94 99 106 112 120 127 131 131 132 133 133 135 141 146 148 159 171 179 190 200 207 214 221 227 231 235 237 237 238 238 240 241 242 245 247 248 249 249 249 250 250 250 251 252 253 254 254 254 254 254 255 256
290 248 69 58 183 344 341 331 340 12 34 57 28 3 344 351 360 8 17 22 24 27 30 33 37 45 51 55 59 61 62 67 73 79 85 89 93 99 105 111 119 126 128 127 127 127 131 141 148 152 160 166 167 173 181 188 197 206 215 223 230 235 238 239 240 242 243 244 246 247 248 249 249 250 250 250 250 251 252 252 254 255 255 255 254 255 256
4 28 30 42 194 345 357 358 17 28 23 29 29 10 353 2 9 11 12 17 23 26 28 32 37 42 44 46 52 59 62 63 67 72 78 82 85 90 95 100 109 118 123 122 122 124 129 138 149 158 168 174 179 183 187 191 195 200 205 212 218 225 231 236 240 242 244 245 246 246 247 247 247 248 248 249 250 250 251 252 252 253 255 255 254 254 255
359 52 29 27 66 35 27 32 34 23 18 19 15 8 8 11 9 9 10 11 19 27 30 31 34 37 38 41 47 54 59 61 62 65 71 76 80 83 86 90 97 106 113 117 119 121 122 128 139 150 163 176 186 193 200 207 212 216 219 221 224 227 230 235 241 244 246 246 246 246 245 244 244 244 244 246 247 248 249 250 251 252 253 254 255 256 256
315 250 103 51 31 23 35 41 36 25 15 9 4 2 6 11 10 10 10 10 16 26 31 31 30 30 32 37 45 51 56 59 59 61 66 71 76 79 81 83 88 96 103 109 113 114 114 116 124 136 152 172 185 197 209 217 221 226 231 234 236 236 237 240 242 244 246 248 248 248 246 244 245 244 244 245 246 247 247 248 249 250 252 253 254 256 257
317 255 104 39 1 328 43 42 34 26 7 358 359 360 0 7 13 10 9 12 18 24 29 29 27 27 28 31 37 46 53 55 57 59 61 65 70 73 75 78 81 87 95 98 99 102 101 97 96 109 142 181 202 217 228 232 232 232 235 240 244 244 242 242 241 240 241 242 243 244 245 245 245 245 245 245 245 246 246 247 248 249 250 251 253 255 257
312 261 319 353 345 287 159 88 35 27 7 351 352 357 0 6 13 8 3 9 16 19 21 24 25 26 25 25 28 36 44 48 52 53 54 57 63 66 70 73 74 76 80 82 84 87 86 81 75 67 37 288 263 257 254 251 248 246 243 244 250 254 251 247 243 241 239 237 237 238 240 241 240 241 243 243 243 245 247 248 249 250 251 252 254 257 260
293 263 334 356 355 62 145 117 17 3 355 344 342 348 354 2 8 4 356 0 9 13 16 18 21 21 21 21 23 27 33 37 40 43 46 50 54 57 60 63 65 67 69 70 71 74 75 73 69 58 24 328 299 283 272 263 258 256 253 249 251 260 262 255 245 239 236 235 234 234 235 235 234 235 237 239 240 242 245 247 250 252 254 257 259 262 264
292 320 346 348 340 283 224 267 301 319 328 329 329 331 337 349 0 356 347 347 357 9 15 16 15 14 15 17 19 21 26 29 30 33 39 45 50 51 52 55 58 59 60 61 63 67 70 71 67 55 35 10 342 313 292 277 266 261 260 257 254 259 268 265 247 236 233 232 231 231 231 231 231 232 234 235 236 238 240 243 246 249 252 256 260 262 262
291 306 312 309 295 275 274 279 284 296 307 311 312 313 316 329 342 343 340 340 344 356 7 10 7 5 9 13 14 16 21 24 27 31 33 38 46 49 50 52 54 53 55 58 59 59 60 59 56 46 32 18 359 338 316 295 276 266 264 262 257 257 265 266 252 240 236 234 232 230 230 231 232 233 233 232 232 234 236 239 242 244 246 247 247 247 246
287 292 296 295 285 275 277 283 287 289 292 293 293 297 303 310 317 324 331 335 337 344 357 5 0 353 358 8 12 11 12 13 20 28 28 32 44 49 49 51 53 52 54 56 52 47 44 43 41 35 24 10 359 349 336 315 291 274 267 261 255 252 254 256 252 243 237 236 235 232 230 229 231 232 233 232 230 229 230 233 235 236 237 235 234 236 241
295 294 295 292 285 281 283 287 287 285 283 278 277 282 290 293 288 292 311 325 334 341 352 1 356 345 346 357 4 4 2 3 7 11 12 23 33 35 36 42 45 44 42 42 42 39 35 32 30 25 14 5 1 358 349 339 329 308 285 268 257 253 248 245 246 242 233 232 235 234 231 229 228 228 231 232 231 228 226 225 225 227 231 233 235 238 243
314 310 307 299 289 286 287 284 282 284 285 281 277 272 261 248 253 266 274 288 310 319 322 330 337 337 335 336 340 347 350 352 354 353 355 10 20 22 25 28 31 32 30 29 31 32 31 31 28 19 8 3 5 7 360 359 5 357 321 291 278 275 256 241 243 245 237 230 230 229 228 228 227 226 226 228 231 231 228 225 224 226 229 231 232 235 238
333 331 322 303 286 285 283 276 278 289 295 288 277 256 219 213 231 248 251 257 274 284 288 297 312 326 327 320 319 334 343 344 344 345 349 3 20 26 22 16 19 26 26 22 23 27 30 33 28 15 4 3 9 13 5 10 23 15 338 307 297 304 285 249 244 249 246 237 230 226 225 225 225 224 223 223 226 229 231 230 228 225 221 217 214 215 217
350 352 346 324 298 292 288 280 278 283 282 265 251 233 213 211 219 228 234 237 243 256 272 287 299 312 320 322 324 335 338 336 337 341 344 353 7 17 10 360 2 12 12 6 7 17 28 34 27 11 1 2 12 12 3 11 26 13 324 302 293 295 292 268 250 247 246 239 230 225 224 224 224 223 224 224 223 223 224 222 218 214 209 205 200 194 191
359 2 357 346 328 307 294 286 279 273 265 258 249 234 224 224 228 232 237 240 241 249 264 278 288 296 303 309 318 327 327 324 327 335 343 349 355 355 347 341 341 343 346 346 349 360 15 28 26 10 359 357 359 356 350 355 350 321 302 295 283 275 277 274 260 250 242 232 224 221 222 223 223 222 221 221 219 217 214 209 206 203 199 191 183 177 170
1 3 2 3 2 342 301 292 292 284 274 269 262 249 238 238 241 244 248 248 244 241 248 264 281 294 298 298 302 309 313 316 321 328 335 340 344 341 330 323 322 322 325 331 336 345 358 10 14 2 349 340 333 336 336 311 302 304 297 287 278 269 267 266 264 259 245 226 215 212 212 212 213 213 212 209 208 206 200 191 187 187 180 168 163 162 157
5 9 11 14 16 9 340 312 311 310 301 289 277 265 253 245 243 244 247 245 235 223 229 253 277 296 310 313 304 296 301 309 315 320 323 325 326 323 318 308 307 309 311 315 320 325 333 339 340 332 321 310 298 301 290 245 261 280 282 275 271 271 268 262 258 257 242 221 208 203 201 199 198 197 194 189 185 183 177 169 166 164 157 149 145 143 141
7 12 15 16 16 13 5 346 322 315 313 303 288 276 266 254 246 243 244 242 229 217 223 243 264 280 293 295 273 262 281 295 302 306 313 316 314 315 319 316 309 307 300 291 294 299 301 300 292 282 280 274 264 260 248 232 241 254 258 258 257 259 264 261 247 233 221 209 200 195 191 186 183 181 176 171 167 165 160 156 154 151 147 143 140 135 131
8 9 12 12 12 11 6 358 345 330 321 312 301 291 279 264 253 246 244 241 231 221 221 233 248 252 246 236 224 227 240 256 270 284 299 306 303 303 303 286 277 283 271 253 255 263 267 265 259 253 252 246 239 237 239 239 242 244 246 249 249 241 240 242 232 213 197 186 181 177 173 172 171 169 165 161 160 158 154 151 149 146 144 144 141 137 135
17 15 16 17 16 14 8 2 357 350 336 321 312 307 293 272 258 250 243 236 222 208 206 217 234 235 222 214 216 223 228 233 240 252 267 276 272 263 249 233 233 240 240 236 236 240 241 240 237 233 228 221 214 212 214 223 234 238 239 240 239 229 216 211 210 202 189 178 172 169 166 165 164 161 157 156 156 156 154 152 150 149 149 149 147 146 146
26 24 25 26 24 22 18 13 8 3 352 329 310 306 302 283 261 249 243 232 214 200 198 209 227 231 220 207 209 218 226 231 234 236 236 230 222 214 210 209 214 224 229 226 223 224 224 222 217 212 207 204 202 201 197 197 204 212 218 222 223 216 202 191 191 195 190 180 173 168 164 161 159 157 156 156 157 157 156 154 153 154 155 154 153 152 151
28 28 29 29 28 27 25 23 20 18 15 1 322 299 297 290 261 241 234 224 210 203 206 215 224 230 226 215 211 215 219 221 223 223 215 205 196 193 196 201 205 212 218 217 212 209 208 205 200 197 195 194 194 194 190 186 186 188 191 195 198 198 191 185 183 184 182 178 173 167 163 160 158 157 156 156 157 157 157 155 155 157 158 156 153 153 154
27 28 29 29 29 30 28 27 26 28 30 32 28 343 306 295 261 220 208 204 200 201 207 214 222 227 221 213 210 211 212 212 214 211 201 188 183 185 191 195 196 200 206 205 199 194 193 192 192 193 192 189 186 186 184 182 181 181 183 182 178 173 171 171 171 169 169 170 170 166 163 161 159 156 155 157 157 157 158 158 158 160 161 159 158 161 165
26 27 29 29 30 30 31 31 32 35 37 41 50 61 58 360 255 210 181 178 186 194 200 211 224 225 212 204 201 200 198 194 191 189 181 173 174 181 181 176 178 187 192 191 189 190 190 188 189 191 189 182 175 174 177 179 180 182 184 184 178 169 163 160 158 156 156 159 163 164 163 162 161 158 157 159 160 160 161 161 161 164 167 168 170 174 178
26 27 28 29 30 31 32 34 35 35 36 39 46 57 68 79 155 209 186 170 180 194 200 205 204 196 193 192 186 176 170 168 167 168 166 166 173 179 169 154 153 162 165 165 173 182 185 185 184 182 178 172 167 165 166 169 171 170 170 171 169 163 157 153 151 147 144 146 151 156 159 160 161 161 161 162 164 165 166 167 169 173 177 179 181 184 187
28 28 29 31 32 32 33 36 37 36 36 39 43 49 59 72 93 140 157 150 155 169 179 183 177 167 167 172 170 159 151 151 154 157 159 163 170 171 157 140 136 140 142 145 152 159 165 174 174 163 155 152 151 149 147 148 147 141 136 138 141 140 137 138 139 137 135 137 142 148 152 155 158 160 162 164 166 168 169 170 173 176 180 184 186 189 193
30 31 33 35 36 35 36 39 41 40 39 40 41 45 53 65 76 89 102 111 123 135 143 151 155 151 148 151 154 150 144 142 144 148 151 153 155 153 143 131 127 132 137 137 139 140 141 144 143 136 130 129 128 127 127 129 127 120 116 118 121 122 125 129 132 132 134 138 140 141 144 149 153 156 157 159 162 162 162 164 167 170 176 185 193 201 211
31 32 34 36 39 41 42 43 45 46 44 43 42 43 49 58 66 74 84 93 102 108 111 115 123 126 125 127 132 135 135 135 138 142 142 138 135 135 131 126 126 134 138 138 136 135 134 133 131 127 123 120 118 116 118 120 117 111 107 107 108 112 117 121 121 122 126 130 129 130 133 138 142 143 144 144 143 141 141 143 145 144 144 147 152 160 173
30 33 35 35 38 43 47 48 49 51 50 49 46 46 48 53 58 64 73 82 89 93 96 99 105 109 110 111 113 114 115 118 124 131 132 126 120 119 120 121 125 133 137 137 135 132 127 124 121 117 113 110 109 111 114 113 109 107 109 111 111 112 112 110 110 113 115 116 115 114 114 115 117 119 122 122 121 119 120 121 121 118 116 114 113 111 110
30 31 34 36 37 41 47 52 54 54 54 54 53 52 51 52 54 57 63 71 77 82 86 89 93 97 101 103 103 102 102 104 109 114 118 117 113 112 115 119 124 128 131 132 130 125 120 117 115 112 109 106 106 107 107 106 107 110 111 110 108 107 106 105 106 108 108 108 107 105 103 103 104 105 106 106 105 105 105 103 100 100 99 98 97 97 96
33 27 27 32 35 39 44 50 55 58 59 58 57 57 56 55 54 54 57 62 68 72 76 79 81 84 88 92 94 95 96 98 99 102 105 106 103 103 109 116 118 120 122 123 120 115 112 112 112 111 111 110 110 108 107 107 108 110 109 107 105 105 105 106 107 107 106 105 104 103 102 102 100 99 98 98 97 96 94 93 91 91 89 87 86 83 81
33 26 22 24 31 39 44 48 52 57 60 61 60 59 58 57 56 55 55 59 64 68 70 72 74 77 80 84 88 91 93 94 93 93 95 97 98 101 105 109 111 112 114 113 111 109 111 114 116 115 115 114 113 111 110 109 109 109 109 108 108 108 107 107 107 105 104 102 101 100 100 100 99 97 95 93 91 89 88 87 85 82 77 74 71 68 65
37 32 28 28 29 33 39 43 46 50 55 59 60 60 60 59 58 57 55 56 60 65 68 71 73 74 77 80 82 83 84 86 88 89 91 94 97 98 99 99 100 102 102 102 101 103 108 112 114 114 114 114 112 111 111 112 112 111 111 110 110 110 109 109 107 105 103 101 100 99 99 97 96 95 93 90 86 83 79 76 73 69 65 63 62 60 57
48 42 36 34 32 30 30 33 39 46 52 59 64 65 64 61 59 57 56 55 56 58 61 64 67 70 75 81 85 86 85 82 80 81 84 89 91 91 91 92 92 92 92 93 95 98 102 105 108 110 111 111 110 110 110 110 109 108 108 108 107 106 106 105 104 103 102 102 101 100 98 95 91 89 86 82 77 72 66 62 58 54 49 47 48 47 45
49 43 36 31 29 28 28 32 38 46 53 58 63 65 65 62 59 58 58 58 58 58 59 60 61 62 63 66 73 84 91 89 83 79 79 82 84 84 85 87 89 89 90 91 92 93 95 99 102 104 105 106 106 108 108 108 108 107 106 105 104 104 103 104 104 105 106 105 104 100 95 91 87 84 80 75 70 64 58 53 47 42 39 38 39 40 39
32 31 31 29 28 27 26 28 34 42 56 66 69 69 66 65 66 65 63 62 62 62 62 63 64 62 60 58 58 63 72 82 86 86 83 80 80 80 80 80 82 84 87 90 91 92 93 94 97 100 102 104 106 108 109 109 109 108 107 107 107 108 109 110 111 110 109 106 103 98 94 91 89 85 78 71 63 55 49 43 40 39 40 40 41 41 40
20 26 31 31 31 32 31 27 24 17 12 57 89 85 74 70 72 74 72 69 68 66 64 64 64 63 63 63 61 59 59 64 73 81 83 81 80 80 80 80 81 82 85 89 92 93 94 94 96 99 102 104 106 108 109 109 108 108 108 108 109 110 111 112 112 109 107 103 98 95 94 93 89 83 77 68 58 50 45 41 41 42 42 40 37 35 33
27 25 23 20 21 27 33 35 36 29 18 23 69 92 85 79 79 81 80 76 74 73 71 69 66 64 63 63 65 66 64 64 68 75 80 82 81 82 84 85 85 86 87 91 94 97 100 103 104 105 106 106 107 107 108 108 108 107 106 105 105 104 104 104 105 105 105 102 97 94 94 91 84 75 68 59 49 43 41 39 37 34 31 28 26 25 23